Location: Fours
(44.3167°N, 6.7000°E)
Time: 00:03:45
(UTC+00:00)

Cosmos 2218 Rocket - Pass Details

Date: 03 June 2022
Orbit: 956 x 1005 km, 82.9° (Epoch: 01 July)

Event Time Altitude Azimuth Distance (km) Brightness Sun altitude
Rises 00:02:02 0° 7° (N) 3,686 8.5 -23.0°
Reaches altitude 10° 00:06:03 10° 32° (NNE) 2,744 7.3 -22.9°
Maximum altitude 00:09:10 14° 62° (ENE) 2,470 6.6 -22.8°
Drops below altitude 10° 00:12:17 10° 92° (E) 2,753 6.4 -22.7°
Sets 00:16:18 0° 117° (ESE) 3,707 6.9 -22.6°
